Torna al catalogo

STARLINK-30991

AttivoComunicazioniVLEO
NORAD 58484·PAYLOAD·🇺🇸 United States

Lanciato Dec 3, 2023 da Cape Canaveral Space Force Station

Loading…

Prossimi Passaggi (prossime 24 ore)

TLE

AggiornatoSource: CelesTrak SupGP

Epoca: Sep 14, 2026, 21:11 UTC

1 58484C 23186M   26257.88312500  .00044290  00000+0  16042-2 0  2578
2 58484  43.0029  74.8018 0001368 266.6740 152.8719 15.27554998    15

Traccia STARLINK-30991 in tempo reale con AllMySat

Download on the App Store